Terminal Aerodrome Forecast
Issued by NWS Sterling, VA

Current Version | Previous Version | Graphics & Text | Print | Product List | Glossary On
Versions: 1 2 3 4 5 6 7 8 9 10 11 12 13 14 15 16 17 18 19 20 21
000
FTUS41 KLWX 280500
TAFDCA
TAF
KDCA 280534Z 2806/2906 28004KT P6SM SCT050 BKN250
     FM281100 35008KT P6SM FEW050 SCT250
     FM290500 35004KT P6SM FEW250=

USA.gov is the U.S. government's official web portal to all federal, state and local government web resources and services.